Regional Weather Roundup
Issued by NWS

Home | Current Version | Previous Version | Text Only | Print | Product List | Glossary On
Versions: 1 2 3 4 5 6 7 8 9 10 11 12 13 14 15 16 17 18 19 20 21 22 23 24 25 26 27 28 29 30 31 32 33 34 35 36 37 38 39 40 41 42 43 44 45 46 47 48 49 50
573
ASUS43 KDTX 281801
RWRMI
MICHIGAN HOURLY REGIONAL WEATHER ROUNDUP
NATIONAL WEATHER SERVICE DETROIT/PONTIAC MI
200 PM EDT FRI APR 28 2017

NOTE: "FAIR" INDICATES FEW OR NO CLOUDS BELOW 12,000 FEET WITH NO
SIGNIFICANT WEATHER AND/OR OBSTRUCTION TO VISIBILITY.

MIZ047>049-052>055-059>063-066>070-074>076-081>083-281900-
SOUTHEAST LOWER MICHIGAN

CITY           SKY/WX    TMP DP  RH WIND       PRES   REMARKS
ADRIAN         CLOUDY    60  42  51 SW14G20   30.00S
6HR MIN TEMP:  45; 6HR MAX TEMP:  60;

ALMA           SUNNY     58  42  54 SW14G22   29.94S
ANN ARBOR      CLOUDY    61  42  49 S12G23    29.97S
BAD AXE        SUNNY     59  39  46 W16G28    29.93S
6HR MIN TEMP:  45; 6HR MAX TEMP:  59;

CARO           SUNNY     61  42  48 W12G21    29.92F
DETROIT CITY   CLOUDY    59  44  57 SW17      29.99R
6HR MIN TEMP:  49; 6HR MAX TEMP:  59;

DETROIT        CLOUDY    62  42  47 S17       30.00R
6HR MIN TEMP:  48; 6HR MAX TEMP:  62;

FLINT          MOSUNNY   63  44  50 SW9       29.93F
6HR MIN TEMP:  46; 6HR MAX TEMP:  63;

GROSSE ILE     CLOUDY    58  47  66 S10       29.99S
6HR MIN TEMP:  49; 6HR MAX TEMP:  58;

HILLSDALE      PTSUNNY   59  43  55 S12       29.99R
HOWELL         PTSUNNY   62  40  43 SW14G20   29.95S
6HR MIN TEMP:  45; 6HR MAX TEMP:  62;


CITY           SKY/WX    TMP DP  RH WIND       PRES   REMARKS
JACKSON        MOSUNNY   61  43  51 S17G23    29.97R
6HR MIN TEMP:  44; 6HR MAX TEMP:  62;

LAMBERTVILLE   PTSUNNY   60  42  51 S14G21    29.99F
6HR MIN TEMP:  46; 6HR MAX TEMP:  61;

LANSING        CLOUDY    62  41  46 SW14G23   29.96R
6HR MIN TEMP:  46; 6HR MAX TEMP:  63;

LAPEER         FAIR      64  39  40 SW15G24   29.94S
6HR MIN TEMP:  47; 6HR MAX TEMP:  64;

MASON          CLOUDY    63  44  49 SW10G17   29.96R
MONROE         CLOUDY    62  43  50 S15G23    29.99F
6HR MIN TEMP:  47; 6HR MAX TEMP:  62;

MT. CLEMENS    PTSUNNY   60  45  59 S21G28    29.96S
6HR MIN TEMP:  50; 6HR MAX TEMP:  61;

PONTIAC        PTSUNNY   62  41  46 SW14      29.94S
6HR MIN TEMP:  47; 6HR MAX TEMP:  62;

PORT HOPE        N/A     59  39  47 SW13G20   29.90F
6HR MIN TEMP:  46; 6HR MAX TEMP:  60;

PORT HURON     MOSUNNY   61  41  48 S13G18    29.97S
TRI CITIES     SUNNY     59  42  53 W16G25    29.93F
6HR MIN TEMP:  46; 6HR MAX TEMP:  59;

MIDLAND        FAIR      60  37  42 SW14G26   29.91F
6HR MIN TEMP:  46; 6HR MAX TEMP:  60;

TROY           PTSUNNY   64  38  37 SW15      29.99R
SAGINAW HB     SUNNY     61  37  41 W14G22    29.92F
$$
MIZ043>046-050>051-056>058-064>065-071>073-077>080-281900-
SOUTHWEST LOWER MICHIGAN

CITY           SKY/WX    TMP DP  RH WIND       PRES   REMARKS
BATTLE CREEK   CLOUDY    63  44  50 SW16G22   29.97S
6HR MIN TEMP:  44; 6HR MAX TEMP:  63;

BENTON HARBOR  CLOUDY    57  45  64 VRB3      29.96S
6HR MIN TEMP:  44; 6HR MAX TEMP:  60;

BIG RAPIDS     SUNNY     56  32  41 SW12G21   29.92R
6HR MIN TEMP:  39; 6HR MAX TEMP:  56;

COLDWATER      PTSUNNY   59  44  56 S10       29.98S
6HR MIN TEMP:  46; 6HR MAX TEMP:  59;

FREMONT        FAIR      54  33  45 SW14      29.95R
HOLLAND        PTSUNNY   57  44  62 SW15G24   29.98R
6HR MIN TEMP:  45; 6HR MAX TEMP:  58;

GRAND RAPIDS   PTSUNNY   57  45  64 SW12G17   29.96R
6HR MIN TEMP:  45; 6HR MAX TEMP:  57;

IONIA          CLOUDY    60  43  55 W13       29.95S
6HR MIN TEMP:  45; 6HR MAX TEMP:  60;

KALAMAZOO      CLOUDY    61  43  51 S13       29.97S
6HR MIN TEMP:  44; 6HR MAX TEMP:  62;

LUDINGTON      SUNNY     45  35  69 W8        29.95S
6HR MIN TEMP:  39; 6HR MAX TEMP:  45;

MARSHALL       MOSUNNY   64  44  49 S9G16     29.96S
6HR MIN TEMP:  44; 6HR MAX TEMP:  64;

MOUNT PLEASANT MOSUNNY   58  37  44 SW18      29.91F
6HR MIN TEMP:  44; 6HR MAX TEMP:  58;

MUSKEGON       PTSUNNY   50  35  56 SW13      29.98R
6HR MIN TEMP:  42; 6HR MAX TEMP:  52;

SOUTH HAVEN    CLOUDY    53  43  69 NW6       29.97S
$$
MIZ016>042-281900-
NORTHERN LOWER MICHIGAN

CITY           SKY/WX    TMP DP  RH WIND       PRES   REMARKS
ALPENA         SUNNY     55  35  47 W10       29.89F
6HR MIN TEMP:  42; 6HR MAX TEMP:  55; 6HR PCP: TRACE;

BEAVER ISLAND  CLOUDY    38  30  73 SW16G23   29.92R WCI  28
6HR MIN TEMP:  33; 6HR MAX TEMP:  39;

BELLAIRE       CLOUDY    45  32  61 W9G16     29.93S
6HR MIN TEMP:  37; 6HR MAX TEMP:  45;

CADILLAC       SUNNY     54  33  45 SW8       29.89R
CHARLEVOIX     CLOUDY    40  31  71 SW18G25   29.96R WCI  31
FRANKFORT      CLOUDY    41  32  71 SW9       29.95S
GAYLORD        PTSUNNY   47  32  56 W13G23    29.88F
6HR MIN TEMP:  37; 6HR MAX TEMP:  47; 6HR PCP: TRACE;

GRAYLING       SUNNY     54  34  46 SW7G17    29.88F
6HR MIN TEMP:  37; 6HR MAX TEMP:  54;

HARBOR SPRINGS CLOUDY    37  30  75 W8G16     29.93R WCI  31
HOUGHTON LAKE  SUNNY     55  33  43 W12       29.89F
6HR MIN TEMP:  40; 6HR MAX TEMP:  55;

MANISTEE       SUNNY     44  34  67 W13G21    29.95R
OSCODA         SUNNY     62  32  31 SW21G28   29.87F
6HR MIN TEMP:  46; 6HR MAX TEMP:  62;

PELLSTON       CLOUDY    39  28  64 W13       29.92R WCI  31
6HR MIN TEMP:  35; 6HR MAX TEMP:  39; 6HR PCP:  0.01;

ROGERS CITY    CLOUDY    46  35  65 W10G20    29.91R
TRAVERSE CITY  PTSUNNY   48  33  56 SW10      29.91F
6HR MIN TEMP:  38; 6HR MAX TEMP:  48; 6HR PCP: TRACE;

$$
MIZ007>008-015-281900-
EASTERN UPPER MICHIGAN

CITY           SKY/WX    TMP DP  RH WIND       PRES   REMARKS
KINROSS        CLOUDY    37  26  64 W20G26    29.89R WCI  27
6HR MIN TEMP:  34; 6HR MAX TEMP:  38; 6HR PCP: TRACE;

MACKINAC ISLAN CLOUDY    37  29  71 SW15G24   29.90F WCI  28
6HR MIN TEMP:  33; 6HR MAX TEMP:  37;

NEWBERRY       CLOUDY    37  27  66 SW18      29.86R WCI  27
6HR MIN TEMP:  31; 6HR MAX TEMP:  37;

S. S. MARIE    CLOUDY    41  26  55 W16G24    29.87R
6HR MIN TEMP:  36; 6HR MAX TEMP:  42;

MUNISING         N/A     39  26  59 W9G18     29.87R WCI  33
6HR MIN TEMP:  32; 6HR MAX TEMP:  40;

$$
MIZ004>006-011>014-085-281900-
CENTRAL UPPER MICHIGAN

CITY           SKY/WX    TMP DP  RH WIND       PRES   REMARKS
MANISTIQUE     CLOUDY    39  28  66 SW10G16   29.88S WCI  32
6HR MIN TEMP:  32; 6HR MAX TEMP:  39;

ESCANABA       CLOUDY    40  27  59 W20       29.90R WCI  30
6HR MIN TEMP:  32; 6HR MAX TEMP:  40;

MENOMINEE      PTSUNNY   43  27  53 NW8       29.91S
6HR MIN TEMP:  34; 6HR MAX TEMP:  43;

SAWYER-GWINN   CLOUDY    36  27  69 W13       29.86R WCI  27
$$
MIZ001>003-009>011-084-281900-
WESTERN UPPER MICHIGAN

CITY           SKY/WX    TMP DP  RH WIND       PRES   REMARKS
IRON MOUNTAIN  CLOUDY    38  26  62 SW14G21   29.88R WCI  30
6HR MIN TEMP:  31; 6HR MAX TEMP:  38;

HOUGHTON       FLURRIES  33  23  66 W21G30    29.82R WCI  21
6HR MIN TEMP:  30; 6HR MAX TEMP:  34; 6HR PCP: TRACE;

COPPER HARBOR    N/A     36  27  69 VRB7G18   29.81R WCI  30
IRONWOOD       CLOUDY    34  27  75 W14       29.90R WCI  25
6HR MIN TEMP:  28; 6HR MAX TEMP:  35;

$$

ABBREVIATIONS USED IN REMARKS
   TC - TEMPERATURE IN CELSIUS
  WCI - WIND CHILL INDEX
   HX - HEAT INDEX
  VSB - VISIBILITY





USA.gov is the U.S. government's official web portal to all federal, state and local government web resources and services.